831  
ASUS44 KMAF 101710  
RWRMAF  
MIDLAND AREA WEATHER ROUNDUP  
NATIONAL WEATHER SERVICE MIDLAND TX  
1200 PM CDT WED AUG 10 2022  
   
..IN SOUTHWEST TEXAS AND SOUTHEAST NEW MEXICO
 
 
 
CITY SKY/WX TMP DP RH WIND PRES REMARKS
 
ALPINE SUNNY 84 53 34 S3 30.33S  
ANDREWS FAIR 85 61 43 NE13 30.27S  
ARTESIA CLOUDY 79 61 53 E8G15 30.30R  
BIG SPRING PTSUNNY 82 64 54 N13 30.24R  
CARLSBAD NOT AVBL  
DRYDEN N/A 91 63 39 SE10 30.16S  
FORT STOCKTON SUNNY 89 56 32 SE12 30.19S  
GUAD PASS MOSUNNY 81 52 36 NE25G31 30.36R  
HOBBS MOSUNNY 81 61 50 N12 30.30R  
LAMESA NOT AVBL  
MARFA SUNNY 83 54 36 SE9G18 30.32S  
MIDLAND AIRPK PTSUNNY 82 64 53 N8 30.25R  
MIDLAND INTL PTSUNNY 86 63 45 N13 30.23R  
ODESSA MOSUNNY 87 62 43 NE13G18 30.24R  
PECOS SUNNY 92 56 29 E6 30.18S  
PRESIDIO FAIR 90 63 40 N5 30.18S  
SEMINOLE PTSUNNY 82 62 50 NE10 30.32S  
SNYDER PTSUNNY 82 63 51 NW12 30.24S  
WINK MOSUNNY 89 58 34 VRB5 30.19S  

   
..OTHER STATIONS IN TEXAS
 
 
 
CITY SKY/WX TMP DP RH WIND PRES REMARKS
 
ABILENE CLOUDY 86 66 51 N15G24 30.19R  
AMARILLO CLOUDY 77 62 59 CALM 30.30S  
AUSTIN MOSUNNY 93 69 45 S12 30.09F  
BROWNSVILLE SUNNY 94 73 50 SE8 30.04F HX 103  
CORPUS CHRISTI PTSUNNY 95 76 53 VRB5 30.06F HX 108  
DALLAS FTW MOSUNNY 95 68 41 W8G18 30.08R  
DEL RIO SUNNY 91 69 48 VRB7 30.08F  
EL PASO MOSUNNY 86 56 35 VRB3 30.23S  
HOUSTON INT MOSUNNY 93 71 48 CALM 30.08S HX 100  
LUBBOCK PTSUNNY 82 61 48 NE7 30.29R  
SAN ANGELO SUNNY 94 61 33 MISG 30.15S  
SAN ANTONIO MOSUNNY 90 66 45 VRB5 30.11F  
WACO MOSUNNY 95 69 42 SE7 30.09S HX 100  
WICHITA FALLS MOSUNNY 88 69 53 NE6G17 30.18S  

   
..OTHER LOCATIONS IN NEW MEXICO
 
 
 
CITY SKY/WX TMP DP RH WIND PRES REMARKS
 
ALAMOGORDO MOSUNNY 84 52 32 CALM 30.27S  
ALBUQUERQUE MOSUNNY 78 60 53 CALM 30.36S  
CANNON AFB LGT RAIN 72 59 63 CALM 30.34S  
CLOVIS LGT RAIN 70 63 78 N7 30.35S  
HOLLOMAN AFB MOSUNNY 86 56 35 CALM 30.29S  
ROSWELL CLOUDY 76 64 66 MISG 30.30R  
RUIDOSO N/A 68 57 68 SE5 30.50S  
SANTA FE MOSUNNY 76 55 48 CALM 30.43S  
TRUTH OR CONSE MOSUNNY 83 56 39 NE14G23 30.31S  
TUCUMCARI PTSUNNY 81 61 50 S9 30.30S  

 
 
 
CLICK HERE TO GO TO PREVIOUS BULLETINS.

The Nexlab TX Page
The Nexlab NM Page Main Text Page